Fairfield, IA

5:27 AM CST on December 11, 2019 (GMT -0600)
Fairfield Municipal

Weather History for KFFL - September, 2019

Change the Weather History Date:

Tuesday, September 3, 2019

  Actual Average Record
Temperature  
Mean Temperature 77 °F -  
Max Temperature 86 °F 80 °F 94 °F (1983)
Min Temperature 68 °F 60 °F 40 °F (1974)
Cooling Degree Days 12    
Growing Degree Days 27 (Base 50)    
Moisture  
Dew Point 70 °F    
Average Humidity 83    
Maximum Humidity 100    
Minimum Humidity 62    
Precipitation  
Precipitation 0.01 in - - ()
Sea Level Pressure  
Sea Level Pressure 29.91 in    
Wind  
Wind Speed 10 mph (WSW)    
Max Wind Speed 18 mph    
Max Gust Speed 23 mph    
Visibility 10 miles    
Events      
Averages and records for this station are not official NWS values.
T = Trace of Precipitation, MM = Missing Value Source: NWS Daily Summary

Daily Weather History Graph

Daily Weather History Graph

Search for Another Location

Airport or City:

Astronomy

Sep. 03, 2019 Rise Set
Actual Time 6:36 AM CDT 7:37 PM CDT
Civil Twilight 6:08 AM CDT 8:05 PM CDT
Nautical Twilight 5:34 AM CDT 8:39 PM CDT
Astronomical Twilight 4:59 AM CDT 9:13 PM CDT
Moon 11:32 AM CDT (9/3) 10:32 PM CDT (9/3)
Length of Visible Light 13h 57m
Length of Day
13h 01m
Waxing Crescent, 25% of the Moon is Illuminated
Sep 3
Waxing Crescent
Sep 5
First Quarter
Sep 13
Full
Sep 21
Last Quarter
Sep 28
New

Hourly Weather History & Observations

Time (CDT) Temp. Heat Index Dew Point Humidity Pressure Visibility Wind Dir Wind Speed Gust Speed Precip Events Conditions
12:15 AM 71.6 °F - 69.8 °F 94% 29.97 in 10.0 mi South 11.5 mph - N/A   Clear
12:35 AM 71.6 °F - 69.8 °F 94% 29.97 in 10.0 mi South 10.4 mph - N/A   Clear
12:55 AM 71.6 °F - 69.8 °F 94% 29.96 in 10.0 mi South 9.2 mph - N/A   Clear
1:15 AM 69.8 °F - 69.8 °F 100% 29.96 in 10.0 mi SSE 8.1 mph - N/A   Clear
1:35 AM 69.8 °F - 69.8 °F 100% 29.96 in 10.0 mi SSE 8.1 mph - N/A   Clear
1:55 AM 69.8 °F - 69.8 °F 100% 29.96 in 10.0 mi SSE 6.9 mph - N/A   Partly Cloudy
2:15 AM 69.8 °F - 69.8 °F 100% 29.95 in 10.0 mi SSE 9.2 mph - N/A   Mostly Cloudy
2:35 AM 69.8 °F - 69.8 °F 100% 29.95 in 10.0 mi SSE 6.9 mph - N/A   Mostly Cloudy
2:55 AM 69.8 °F - 69.8 °F 100% 29.94 in 10.0 mi South 10.4 mph - N/A   Scattered Clouds
3:15 AM 69.8 °F - 69.8 °F 100% 29.92 in 10.0 mi South 9.2 mph 15.0 mph N/A   Scattered Clouds
3:35 AM 69.8 °F - 68.0 °F 94% 29.90 in 10.0 mi South 10.4 mph - N/A   Mostly Cloudy
3:55 AM 69.8 °F - 68.0 °F 94% 29.90 in 10.0 mi South 11.5 mph - N/A   Mostly Cloudy
4:15 AM 69.8 °F - 69.8 °F 100% 29.89 in 7.0 mi South 12.7 mph - N/A   Overcast
4:35 AM 71.6 °F - 69.8 °F 94% 29.88 in 10.0 mi South 13.8 mph 21.9 mph N/A   Overcast
4:55 AM 71.6 °F - 69.8 °F 94% 29.87 in 10.0 mi South 15.0 mph 21.9 mph 0.01 in   Scattered Clouds
5:15 AM 71.6 °F - 69.8 °F 94% 29.86 in 10.0 mi SSW 12.7 mph 20.7 mph N/A   Clear
5:35 AM 71.6 °F - 69.8 °F 94% 29.86 in 10.0 mi SSW 17.3 mph - N/A   Clear
5:55 AM 71.6 °F - 69.8 °F 94% 29.86 in 10.0 mi SSW 13.8 mph 21.9 mph N/A   Clear
6:15 AM 71.6 °F - 69.8 °F 94% 29.86 in 10.0 mi SSW 12.7 mph - N/A   Clear
6:35 AM 71.6 °F - 69.8 °F 94% 29.86 in 10.0 mi SSW 12.7 mph 19.6 mph N/A   Partly Cloudy
6:55 AM 71.6 °F - 69.8 °F 94% 29.87 in 10.0 mi SSW 13.8 mph - N/A   Partly Cloudy
7:15 AM 71.6 °F - 69.8 °F 94% 29.87 in 10.0 mi SSW 11.5 mph - N/A   Clear
7:35 AM 73.4 °F - 69.8 °F 88% 29.87 in 10.0 mi SSW 10.4 mph - N/A   Clear
8:15 AM 73.4 °F - 71.6 °F 94% 29.88 in 10.0 mi SW 11.5 mph - N/A   Clear
8:35 AM 75.2 °F - 71.6 °F 89% 29.88 in 10.0 mi WSW 8.1 mph - N/A   Clear
8:55 AM 77.0 °F - 71.6 °F 83% 29.88 in 10.0 mi WSW 11.5 mph - N/A   Clear
9:15 AM 77.0 °F - 73.4 °F 89% 29.87 in 10.0 mi WSW 11.5 mph - N/A   Clear
9:35 AM 78.8 °F - 73.4 °F 83% 29.88 in 10.0 mi WSW 12.7 mph 18.4 mph N/A   Clear
9:55 AM 80.6 °F 85.4 °F 73.4 °F 79% 29.88 in 10.0 mi West 13.8 mph 19.6 mph N/A   Clear
10:15 AM 82.4 °F 89.5 °F 75.2 °F 79% 29.88 in 10.0 mi West 10.4 mph 23.0 mph N/A   Scattered Clouds
10:35 AM 82.4 °F 89.5 °F 75.2 °F 79% 29.87 in 10.0 mi West 12.7 mph 19.6 mph N/A   Mostly Cloudy
10:55 AM 82.4 °F 88.2 °F 73.4 °F 74% 29.87 in 10.0 mi West 18.4 mph - N/A   Partly Cloudy
11:15 AM 84.2 °F 92.3 °F 75.2 °F 74% 29.87 in 10.0 mi West 12.7 mph 21.9 mph N/A   Scattered Clouds
11:35 AM 84.2 °F 92.3 °F 75.2 °F 74% 29.88 in 10.0 mi West 12.7 mph 20.7 mph N/A   Scattered Clouds
11:55 AM 84.2 °F 92.3 °F 75.2 °F 74% 29.89 in 10.0 mi West 15.0 mph 21.9 mph N/A   Mostly Cloudy
12:15 PM 84.2 °F 92.3 °F 75.2 °F 74% 29.90 in 10.0 mi West 16.1 mph 23.0 mph N/A   Overcast
12:35 PM 84.2 °F 94.1 °F 77.0 °F 79% 29.90 in 10.0 mi WNW 11.5 mph 19.6 mph N/A   Mostly Cloudy
12:55 PM 86.0 °F 96.9 °F 77.0 °F 74% 29.90 in 10.0 mi WNW 13.8 mph - N/A   Partly Cloudy
1:15 PM 86.0 °F 96.9 °F 77.0 °F 74% 29.92 in 10.0 mi NW 12.7 mph 19.6 mph N/A   Partly Cloudy
1:35 PM 86.0 °F 96.9 °F 77.0 °F 74% 29.93 in 10.0 mi NW 12.7 mph 19.6 mph N/A   Partly Cloudy
1:55 PM 86.0 °F 95.1 °F 75.2 °F 70% 29.91 in 10.0 mi NNW 9.2 mph - N/A   Clear
2:15 PM 86.0 °F 95.1 °F 75.2 °F 70% 29.91 in 10.0 mi NW 5.8 mph - N/A   Clear
2:35 PM 86.0 °F 95.1 °F 75.2 °F 70% 29.90 in 10.0 mi West 3.5 mph - N/A   Clear
2:55 PM 86.0 °F 95.1 °F 75.2 °F 70% 29.89 in 10.0 mi SW 5.8 mph - N/A   Clear
3:15 PM 86.0 °F 95.1 °F 75.2 °F 70% 29.87 in 10.0 mi Calm Calm - N/A   Clear
3:35 PM 86.0 °F 91.8 °F 71.6 °F 62% 29.87 in 10.0 mi SW 6.9 mph - N/A   Clear
3:55 PM 84.2 °F 90.9 °F 73.4 °F 70% 29.85 in 10.0 mi SSW 9.2 mph - N/A   Clear
4:15 PM 86.0 °F 95.1 °F 75.2 °F 70% 29.86 in 10.0 mi Variable 6.9 mph - N/A   Clear
4:35 PM 86.0 °F 95.1 °F 75.2 °F 70% 29.88 in 10.0 mi WSW 8.1 mph - N/A   Clear
4:55 PM 86.0 °F 95.1 °F 75.2 °F 70% 29.88 in 10.0 mi West 8.1 mph - N/A   Clear
5:15 PM 84.2 °F 88.4 °F 69.8 °F 62% 29.90 in 10.0 mi NNW 11.5 mph 17.3 mph N/A   Clear
5:35 PM 82.4 °F 86.3 °F 69.8 °F 66% 29.90 in 10.0 mi NNW 8.1 mph - N/A   Partly Cloudy
5:55 PM 80.6 °F 83.9 °F 69.8 °F 70% 29.91 in 10.0 mi NNW 9.2 mph - N/A   Clear
6:15 PM 80.6 °F 83.9 °F 69.8 °F 70% 29.92 in 10.0 mi NW 12.7 mph - N/A   Clear
6:35 PM 78.8 °F - 69.8 °F 74% 29.92 in 10.0 mi NW 9.2 mph 15.0 mph N/A   Partly Cloudy
6:55 PM 78.8 °F - 69.8 °F 74% 29.92 in 10.0 mi WNW 8.1 mph - N/A   Clear
7:15 PM 77.0 °F - 68.0 °F 74% 29.93 in 10.0 mi NW 5.8 mph - N/A   Clear
7:35 PM 75.2 °F - 66.2 °F 73% 29.94 in 10.0 mi NW 8.1 mph - N/A   Clear
7:55 PM 73.4 °F - 64.4 °F 73% 29.95 in 10.0 mi WNW 6.9 mph - N/A   Clear
8:15 PM 71.6 °F - 64.4 °F 78% 29.95 in 10.0 mi WNW 5.8 mph - N/A   Clear
8:35 PM 69.8 °F - 64.4 °F 83% 29.96 in 10.0 mi WNW 5.8 mph - N/A   Clear
8:55 PM 69.8 °F - 64.4 °F 83% 29.96 in 10.0 mi WNW 5.8 mph - N/A   Clear
9:15 PM 69.8 °F - 64.4 °F 83% 29.97 in 10.0 mi NW 8.1 mph - N/A   Clear
9:35 PM 69.8 °F - 64.4 °F 83% 29.98 in 10.0 mi WNW 8.1 mph - N/A   Clear
9:55 PM 68.0 °F - 64.4 °F 88% 29.98 in 10.0 mi NW 8.1 mph - N/A   Clear
10:15 PM 69.8 °F - 62.6 °F 78% 29.98 in 10.0 mi NW 11.5 mph - N/A   Clear
10:35 PM 69.8 °F - 64.4 °F 83% 29.99 in 10.0 mi NW 10.4 mph - N/A   Clear
10:55 PM 69.8 °F - 64.4 °F 83% 30.00 in 10.0 mi NW 11.5 mph - N/A   Clear
11:15 PM 68.0 °F - 62.6 °F 83% 30.00 in 10.0 mi NNW 11.5 mph - N/A   Clear
11:35 PM 68.0 °F - 60.8 °F 78% 30.01 in 10.0 mi NW 10.4 mph - N/A   Clear
11:55 PM 68.0 °F - 60.8 °F 78% 30.02 in 10.0 mi NNW 10.4 mph - N/A   Clear